| time (UTC) | temp F | wind direction | speed MPH | gust MPH | rain 1hr in | rain 24hr in | rain mn in | humidity % | barometer mb |
| 20260505153302 | 70 | 195 | 4.0 | 6.0 | 0.00 | 0.00 | 0.00 | 40 | 1014.6 |
| 20260505152759 | 71 | 250 | 9.0 | 9.0 | 0.00 | 0.00 | 0.00 | 42 | 1014.7 |
| 20260505152255 | 71 | 354 | 12.0 | 12.0 | 0.00 | 0.00 | 0.00 | 40 | 1014.8 |
| 20260505151750 | 71 | 165 | 9.0 | 12.0 | 0.00 | 0.00 | 0.00 | 39 | 1014.9 |
| 20260505151248 | 71 | 265 | 6.0 | 17.0 | 0.00 | 0.00 | 0.00 | 40 | 1014.8 |
| 20260505150744 | 71 | 240 | 9.0 | 11.0 | 0.00 | 0.00 | 0.00 | 44 | 1014.6 |
| 20260505150241 | 71 | 244 | 5.0 | 11.0 | 0.00 | 0.00 | 0.00 | 41 | 1014.9 |
| 20260505140206 | 71 | 233 | 6.0 | 8.0 | 0.00 | 0.00 | 0.00 | 40 | 1014.9 |
| 20260505130130 | 68 | 66 | 3.0 | 9.0 | 0.00 | 0.00 | 0.00 | 46 | 1014.7 |
| 20260505124619 | 67 | 203 | 2.0 | 3.0 | 0.00 | 0.00 | 0.00 | 47 | 1014.8 |
| 20260505124116 | 67 | 83 | 5.0 | 7.0 | 0.00 | 0.00 | 0.00 | 48 | 1015.2 |
| 20260505123612 | 66 | 325 | 3.0 | 5.0 | 0.00 | 0.00 | 0.00 | 49 | 1015.2 |
| 20260505123109 | 66 | 225 | 9.0 | 10.0 | 0.00 | 0.00 | 0.00 | 47 | 1015.5 |
| 20260505122605 | 64 | 218 | 6.0 | 6.0 | 0.00 | 0.00 | 0.00 | 50 | 1015.1 |
| 20260505122103 | 62 | 228 | 2.0 | 5.0 | 0.00 | 0.00 | 0.00 | 54 | 1015.0 |
| 20260505121559 | 63 | 139 | 0.0 | 2.0 | 0.00 | 0.00 | 0.00 | 57 | 1015.0 |
| 20260505121056 | 62 | 136 | 5.0 | 5.0 | 0.00 | 0.00 | 0.00 | 56 | 1015.3 |
| 20260505120552 | 61 | 111 | 3.0 | 3.0 | 0.00 | 0.00 | 0.00 | 61 | 1015.2 |
| 20260505120048 | 61 | 269 | 0.0 | 1.0 | 0.00 | 0.00 | 0.00 | 61 | 1015.1 |
| 20260505115542 | 61 | 107 | 4.0 | 5.0 | 0.00 | 0.00 | 0.00 | 60 | 1015.2 |
| 20260505115040 | 60 | 210 | 1.0 | 4.0 | 0.00 | 0.00 | 0.00 | 63 | 1015.1 |
| 20260505114537 | 59 | 131 | 5.0 | 6.0 | 0.00 | 0.00 | 0.00 | 67 | 1015.2 |
| 20260505114033 | 56 | 313 | 1.0 | 2.0 | 0.00 | 0.00 | 0.00 | 74 | 1015.2 |
| 20260505113530 | 53 | 101 | 4.0 | 4.0 | 0.00 | 0.00 | 0.00 | 85 | 1015.1 |
| 20260505113026 | 50 | 135 | 1.0 | 4.0 | 0.00 | 0.00 | 0.00 | 96 | 1015.2 |
| 20260505112522 | 48 | 336 | 1.0 | 3.0 | 0.00 | 0.00 | 0.00 | 96 | 1015.1 |
| 20260505112020 | 48 | 158 | 1.0 | 3.0 | 0.00 | 0.00 | 0.00 | 97 | 1015.3 |
| 20260505111514 | 48 | 98 | 3.0 | 4.0 | 0.00 | 0.00 | 0.00 | 97 | 1015.0 |
| 20260505111011 | 47 | 68 | 2.0 | 3.0 | 0.00 | 0.00 | 0.00 | 97 | 1015.3 |
| 20260505110508 | 47 | 216 | 0.0 | 5.0 | 0.00 | 0.00 | 0.00 | 97 | 1015.0 |
| 20260505101939 | 45 | 2 | 2.0 | 3.0 | 0.00 | 0.00 | 0.00 | 97 | 1014.7 |
| 20260505101432 | 45 | 288 | 1.0 | 2.0 | 0.00 | 0.00 | 0.00 | 96 | 1014.5 |
| 20260505100928 | 45 | 135 | 0.0 | 3.0 | 0.00 | 0.00 | 0.00 | 96 | 1014.5 |
| 20260505100426 | 45 | 288 | 0.0 | 3.0 | 0.00 | 0.00 | 0.00 | 96 | 1014.4 |
| 20260505095921 | 45 | 231 | 4.0 | 7.0 | 0.00 | 0.00 | 0.00 | 96 | 1014.3 |
| 20260505095419 | 45 | 262 | 2.0 | 4.0 | 0.00 | 0.00 | 0.00 | 96 | 1014.3 |
| 20260505094914 | 45 | 224 | 0.0 | 2.0 | 0.00 | 0.00 | 0.00 | 96 | 1014.2 |
| 20260505094412 | 45 | 190 | 0.0 | 3.0 | 0.00 | 0.00 | 0.00 | 96 | 1014.3 |
| 20260505093908 | 45 | 40 | 2.0 | 2.0 | 0.00 | 0.00 | 0.00 | 96 | 1014.1 |
| 20260505093405 | 45 | 243 | 0.0 | 2.0 | 0.00 | 0.00 | 0.00 | 96 | 1014.0 |
| 20260505092902 | 45 | 78 | 1.0 | 1.0 | 0.00 | 0.00 | 0.00 | 96 | 1014.1 |
| 20260505092400 | 45 | 75 | 2.0 | 2.0 | 0.00 | 0.00 | 0.00 | 96 | 1014.2 |
| 20260505091857 | 45 | 22 | 0.0 | 3.0 | 0.00 | 0.00 | 0.00 | 96 | 1014.2 |
| 20260505091355 | 45 | 103 | 0.0 | 1.0 | 0.00 | 0.00 | 0.00 | 96 | 1014.1 |
| 20260505090853 | 45 | 108 | 1.0 | 2.0 | 0.00 | 0.00 | 0.00 | 96 | 1014.4 |
| 20260505090351 | 45 | 64 | 2.0 | 2.0 | 0.00 | 0.00 | 0.00 | 96 | 1014.1 |
| 20260505085848 | 45 | 293 | 0.0 | 2.0 | 0.00 | 0.00 | 0.00 | 96 | 1014.0 |
| 20260505085345 | 45 | 76 | 0.0 | 0.0 | 0.00 | 0.00 | 0.00 | 96 | 1014.0 |
| 20260505084843 | 45 | 107 | 0.0 | 2.0 | 0.00 | 0.00 | 0.00 | 96 | 1013.6 |
| 20260505084341 | 46 | 280 | 3.0 | 3.0 | 0.00 | 0.00 | 0.00 | 96 | 1013.9 |
| 20260505083838 | 46 | 283 | 3.0 | 3.0 | 0.00 | 0.00 | 0.00 | 95 | 1014.1 |
| 20260505083336 | 46 | 1 | 0.0 | 3.0 | 0.00 | 0.00 | 0.00 | 95 | 1014.1 |
| 20260505082832 | 46 | 100 | 0.0 | 2.0 | 0.00 | 0.00 | 0.00 | 95 | 1013.9 |
| 20260505082328 | 46 | 166 | 0.0 | 1.0 | 0.00 | 0.00 | 0.00 | 95 | 1013.9 |
| 20260505081825 | 46 | 286 | 1.0 | 1.0 | 0.00 | 0.00 | 0.00 | 95 | 1014.0 |
| 20260505081322 | 46 | 119 | 0.0 | 0.0 | 0.00 | 0.00 | 0.00 | 95 | 1013.6 |
| 20260505080819 | 46 | 139 | 2.0 | 2.0 | 0.00 | 0.00 | 0.00 | 95 | 1013.6 |
| 20260505080314 | 46 | 225 | 0.0 | 1.0 | 0.00 | 0.00 | 0.00 | 95 | 1013.7 |
| 20260505075810 | 46 | 104 | 1.0 | 2.0 | 0.00 | 0.00 | 0.00 | 95 | 1013.5 |
| 20260505075307 | 46 | 209 | 0.0 | 0.0 | 0.00 | 0.00 | 0.00 | 94 | 1013.4 |
| 20260505074804 | 46 | 251 | 2.0 | 2.0 | 0.00 | 0.00 | 0.00 | 94 | 1013.5 |
| 20260505074302 | 46 | 43 | 1.0 | 2.0 | 0.00 | 0.00 | 0.00 | 94 | 1013.6 |
| 20260505073759 | 46 | 89 | 0.0 | 2.0 | 0.00 | 0.00 | 0.00 | 94 | 1013.5 |
| 20260505073257 | 47 | 279 | 0.0 | 2.0 | 0.00 | 0.00 | 0.00 | 94 | 1013.4 |
| 20260505072753 | 47 | 124 | 0.0 | 3.0 | 0.00 | 0.00 | 0.00 | 94 | 1013.6 |
| 20260505072250 | 47 | 114 | 0.0 | 3.0 | 0.00 | 0.00 | 0.00 | 93 | 1013.4 |
| 20260505071745 | 47 | 80 | 0.0 | 2.0 | 0.00 | 0.00 | 0.00 | 93 | 1013.2 |
| 20260505071242 | 47 | 102 | 0.0 | 2.0 | 0.00 | 0.00 | 0.00 | 92 | 1013.5 |
| 20260505070740 | 48 | 19 | 0.0 | 1.0 | 0.00 | 0.00 | 0.00 | 93 | 1013.4 |
| 20260505070236 | 47 | 148 | 0.0 | 1.0 | 0.00 | 0.00 | 0.00 | 92 | 1013.3 |
| 20260505065732 | 48 | 135 | 0.0 | 3.0 | 0.00 | 0.00 | 0.00 | 91 | 1013.2 |
| 20260505065229 | 48 | 239 | 1.0 | 2.0 | 0.00 | 0.00 | 0.00 | 91 | 1013.4 |
| 20260505064726 | 48 | 352 | 1.0 | 2.0 | 0.00 | 0.00 | 0.00 | 91 | 1013.4 |
| 20260505064224 | 48 | 202 | 0.0 | 1.0 | 0.00 | 0.00 | 0.00 | 91 | 1013.3 |
| 20260505063721 | 49 | 53 | 1.0 | 2.0 | 0.00 | 0.00 | 0.00 | 91 | 1013.4 |
| 20260505063217 | 49 | 268 | 2.0 | 2.0 | 0.00 | 0.00 | 0.00 | 91 | 1013.7 |
| 20260505062713 | 49 | 52 | 2.0 | 2.0 | 0.00 | 0.00 | 0.00 | 91 | 1013.5 |
| 20260505062211 | 49 | 78 | 1.0 | 2.0 | 0.00 | 0.00 | 0.00 | 91 | 1013.2 |
| 20260505061708 | 48 | 326 | 0.0 | 1.0 | 0.00 | 0.00 | 0.00 | 91 | 1013.5 |
| 20260505061206 | 48 | 310 | 0.0 | 0.0 | 0.00 | 0.00 | 0.00 | 91 | 1013.6 |
| 20260505060703 | 48 | 147 | 0.0 | 0.0 | 0.00 | 0.00 | 0.00 | 91 | 1013.5 |
| 20260505060200 | 48 | 306 | 0.0 | 1.0 | 0.00 | 0.00 | 0.00 | 92 | 1013.7 |
| 20260505055655 | 48 | 178 | 0.0 | 2.0 | 0.00 | 0.00 | 0.00 | 92 | 1013.6 |
| 20260505055152 | 48 | 147 | 0.0 | 2.0 | 0.00 | 0.00 | 0.00 | 92 | 1013.7 |
| 20260505054649 | 48 | 128 | 0.0 | 1.0 | 0.00 | 0.00 | 0.00 | 92 | 1013.4 |
| 20260505054147 | 48 | 32 | 0.0 | 0.0 | 0.00 | 0.00 | 0.00 | 92 | 1013.5 |
| 20260505053645 | 48 | 32 | 0.0 | 1.0 | 0.00 | 0.00 | 0.00 | 92 | 1013.4 |
| 20260505053141 | 48 | 257 | 0.0 | 1.0 | 0.00 | 0.00 | 0.00 | 92 | 1013.7 |
| 20260505052638 | 48 | 95 | 0.0 | 1.0 | 0.00 | 0.00 | 0.00 | 91 | 1013.5 |
| 20260505052135 | 48 | 161 | 0.0 | 2.0 | 0.00 | 0.00 | 0.00 | 91 | 1013.4 |
| 20260505051632 | 48 | 48 | 0.0 | 1.0 | 0.00 | 0.00 | 0.00 | 91 | 1013.2 |
| 20260505051130 | 48 | 29 | 0.0 | 1.0 | 0.00 | 0.00 | 0.00 | 91 | 1013.6 |
| 20260505050628 | 48 | 113 | 0.0 | 0.0 | 0.00 | 0.00 | 0.00 | 91 | 1013.5 |
| 20260505050126 | 48 | 218 | 0.0 | 0.0 | 0.00 | 0.00 | 0.00 | 90 | 1013.6 |
| 20260505041555 | 50 | 148 | 0.0 | 0.0 | 0.00 | 0.00 | 0.00 | 87 | 1013.0 |
| 20260505041053 | 50 | 194 | 0.0 | 1.0 | 0.00 | 0.00 | 0.00 | 87 | 1013.2 |
| 20260505040550 | 50 | 122 | 0.0 | 2.0 | 0.00 | 0.00 | 0.00 | 86 | 1013.2 |
| 20260505040047 | 50 | 190 | 1.0 | 1.0 | 0.00 | 0.00 | 0.00 | 86 | 1013.2 |
| 20260505035543 | 50 | 283 | 0.0 | 2.0 | 0.00 | 0.00 | 0.00 | 85 | 1013.3 |
| 20260505035040 | 50 | 99 | 1.0 | 1.0 | 0.00 | 0.00 | 0.00 | 85 | 1013.3 |
| 20260505034536 | 51 | 34 | 0.0 | 0.0 | 0.00 | 0.00 | 0.00 | 84 | 1013.2 |
| 20260505034033 | 51 | 126 | 0.0 | 1.0 | 0.00 | 0.00 | 0.00 | 83 | 1013.2 |
| 20260505033530 | 51 | 193 | 0.0 | 3.0 | 0.00 | 0.00 | 0.00 | 83 | 1013.3 |
| 20260505033029 | 51 | 185 | 0.0 | 1.0 | 0.00 | 0.00 | 0.00 | 84 | 1013.2 |
| 20260505032526 | 51 | 119 | 0.0 | 2.0 | 0.00 | 0.00 | 0.00 | 84 | 1013.1 |
| 20260505032022 | 51 | 89 | 0.0 | 1.0 | 0.00 | 0.00 | 0.00 | 83 | 1013.4 |
| 20260505031520 | 51 | 251 | 1.0 | 1.0 | 0.00 | 0.00 | 0.00 | 82 | 1013.2 |
| 20260505031016 | 52 | 135 | 0.0 | 1.0 | 0.00 | 0.00 | 0.00 | 81 | 1013.1 |
| 20260505030513 | 52 | 243 | 0.0 | 1.0 | 0.00 | 0.00 | 0.00 | 81 | 1013.3 |
| 20260505030009 | 52 | 228 | 0.0 | 2.0 | 0.00 | 0.00 | 0.00 | 80 | 1013.4 |
| 20260505025505 | 52 | 102 | 1.0 | 2.0 | 0.00 | 0.00 | 0.00 | 81 | 1013.3 |
| 20260505025004 | 52 | 122 | 0.0 | 1.0 | 0.00 | 0.00 | 0.00 | 80 | 1013.2 |
| 20260505024500 | 52 | 180 | 0.0 | 1.0 | 0.00 | 0.00 | 0.00 | 80 | 1013.4 |
| 20260505023958 | 52 | 124 | 0.0 | 0.0 | 0.00 | 0.00 | 0.00 | 80 | 1013.5 |
| 20260505023454 | 53 | 92 | 0.0 | 0.0 | 0.00 | 0.00 | 0.00 | 79 | 1013.5 |
| 20260505022952 | 53 | 74 | 1.0 | 2.0 | 0.00 | 0.00 | 0.00 | 78 | 1013.4 |
| 20260505022449 | 53 | 111 | 0.0 | 1.0 | 0.00 | 0.00 | 0.00 | 77 | 1013.4 |
| 20260505021947 | 54 | 89 | 0.0 | 1.0 | 0.00 | 0.00 | 0.00 | 75 | 1013.4 |
| 20260505021443 | 54 | 229 | 0.0 | 2.0 | 0.00 | 0.00 | 0.00 | 75 | 1013.4 |
| 20260505020939 | 54 | 208 | 0.0 | 1.0 | 0.00 | 0.00 | 0.00 | 76 | 1013.4 |
| 20260505020434 | 54 | 113 | 0.0 | 0.0 | 0.00 | 0.00 | 0.00 | 74 | 1013.7 |
| 20260505015931 | 55 | 129 | 0.0 | 1.0 | 0.00 | 0.00 | 0.00 | 73 | 1013.4 |
| 20260505015428 | 55 | 129 | 0.0 | 1.0 | 0.00 | 0.00 | 0.00 | 73 | 1013.6 |
| 20260505014926 | 55 | 130 | 0.0 | 1.0 | 0.00 | 0.00 | 0.00 | 72 | 1013.5 |
| 20260505014422 | 55 | 89 | 0.0 | 1.0 | 0.00 | 0.00 | 0.00 | 71 | 1013.4 |
| 20260505013919 | 56 | 129 | 1.0 | 1.0 | 0.00 | 0.00 | 0.00 | 72 | 1013.4 |
| 20260505013416 | 56 | 119 | 2.0 | 2.0 | 0.00 | 0.00 | 0.00 | 73 | 1013.5 |
| 20260505012914 | 56 | 124 | 0.0 | 0.0 | 0.00 | 0.00 | 0.00 | 71 | 1013.6 |
| 20260505012412 | 56 | 102 | 2.0 | 2.0 | 0.00 | 0.00 | 0.00 | 70 | 1013.3 |
| 20260505011908 | 57 | 157 | 0.0 | 2.0 | 0.00 | 0.00 | 0.00 | 69 | 1013.3 |
| 20260505011405 | 58 | 258 | 0.0 | 2.0 | 0.00 | 0.00 | 0.00 | 67 | 1013.3 |
| 20260505010901 | 58 | 135 | 0.0 | 2.0 | 0.00 | 0.00 | 0.00 | 65 | 1013.3 |
| 20260505010357 | 59 | 185 | 1.0 | 3.0 | 0.00 | 0.00 | 0.00 | 63 | 1013.0 |
| 20260505005853 | 59 | 249 | 1.0 | 2.0 | 0.00 | 0.00 | 0.00 | 64 | 1013.0 |
| 20260505005350 | 60 | 37 | 0.0 | 0.0 | 0.00 | 0.00 | 0.00 | 62 | 1013.0 |
| 20260505004848 | 60 | 197 | 3.0 | 3.0 | 0.00 | 0.00 | 0.00 | 60 | 1013.0 |
| 20260505004344 | 61 | 353 | 1.0 | 3.0 | 0.00 | 0.00 | 0.00 | 58 | 1013.1 |
| 20260505003841 | 62 | 129 | 0.0 | 2.0 | 0.00 | 0.00 | 0.00 | 57 | 1013.0 |
| 20260505003338 | 63 | 246 | 0.0 | 1.0 | 0.00 | 0.00 | 0.00 | 51 | 1012.9 |
| 20260505002834 | 64 | 206 | 2.0 | 3.0 | 0.00 | 0.00 | 0.00 | 50 | 1013.0 |
| 20260505002331 | 66 | 16 | 3.0 | 3.0 | 0.00 | 0.00 | 0.00 | 48 | 1012.9 |
| 20260505001830 | 66 | 112 | 0.0 | 2.0 | 0.00 | 0.00 | 0.00 | 45 | 1013.0 |
| 20260505001326 | 67 | 245 | 1.0 | 2.0 | 0.00 | 0.00 | 0.00 | 46 | 1012.7 |
| 20260505000824 | 67 | 163 | 1.0 | 5.0 | 0.00 | 0.00 | 0.00 | 44 | 1012.9 |
| 20260505000321 | 68 | 202 | 4.0 | 4.0 | 0.00 | 0.00 | 0.00 | 44 | 1012.9 |
| 20260504235818 | 68 | 251 | 2.0 | 5.0 | 0.00 | 0.00 | 0.00 | 43 | 1012.6 |
| 20260504235315 | 68 | 339 | 0.0 | 4.0 | 0.00 | 0.00 | 0.00 | 43 | 1012.8 |
| 20260504234811 | 68 | 108 | 2.0 | 5.0 | 0.00 | 0.00 | 0.00 | 45 | 1012.8 |
| 20260504234309 | 68 | 184 | 5.0 | 8.0 | 0.00 | 0.00 | 0.00 | 43 | 1012.8 |
| 20260504233805 | 68 | 142 | 0.0 | 3.0 | 0.00 | 0.00 | 0.00 | 43 | 1012.6 |
| 20260504233301 | 68 | 137 | 5.0 | 5.0 | 0.00 | 0.00 | 0.00 | 43 | 1012.4 |
| 20260504232758 | 68 | 87 | 1.0 | 2.0 | 0.00 | 0.00 | 0.00 | 45 | 1012.5 |
| 20260504232255 | 68 | 235 | 1.0 | 1.0 | 0.00 | 0.00 | 0.00 | 47 | 1012.5 |
| 20260504231752 | 68 | 19 | 0.0 | 2.0 | 0.00 | 0.00 | 0.00 | 47 | 1012.1 |
| 20260504231248 | 68 | 103 | 1.0 | 2.0 | 0.00 | 0.00 | 0.00 | 47 | 1012.1 |
| 20260504230744 | 68 | 177 | 0.0 | 2.0 | 0.00 | 0.00 | 0.00 | 46 | 1012.4 |
| 20260504230243 | 68 | 250 | 0.0 | 3.0 | 0.00 | 0.00 | 0.00 | 44 | 1012.2 |
| 20260504225741 | 68 | 166 | 2.0 | 3.0 | 0.00 | 0.00 | 0.00 | 47 | 1012.2 |
| 20260504225237 | 69 | 208 | 4.0 | 4.0 | 0.00 | 0.00 | 0.00 | 42 | 1012.4 |
| 20260504224734 | 70 | 76 | 0.0 | 2.0 | 0.00 | 0.00 | 0.00 | 41 | 1012.4 |
| 20260504224232 | 70 | 213 | 1.0 | 6.0 | 0.00 | 0.00 | 0.00 | 41 | 1012.5 |
| 20260504223728 | 71 | 239 | 3.0 | 7.0 | 0.00 | 0.00 | 0.00 | 40 | 1012.6 |
| 20260504223223 | 69 | 125 | 1.0 | 3.0 | 0.00 | 0.00 | 0.00 | 44 | 1012.7 |
| 20260504222721 | 69 | 144 | 3.0 | 6.0 | 0.00 | 0.00 | 0.00 | 43 | 1012.6 |
| 20260504222218 | 69 | 101 | 2.0 | 4.0 | 0.00 | 0.00 | 0.00 | 42 | 1012.7 |
| 20260504221715 | 70 | 244 | 4.0 | 7.0 | 0.00 | 0.00 | 0.00 | 43 | 1012.5 |
| 20260504221212 | 69 | 95 | 2.0 | 4.0 | 0.00 | 0.00 | 0.00 | 44 | 1012.3 |
| 20260504220708 | 69 | 210 | 4.0 | 8.0 | 0.00 | 0.00 | 0.00 | 42 | 1012.3 |
| 20260504220206 | 69 | 211 | 3.0 | 4.0 | 0.00 | 0.00 | 0.00 | 43 | 1012.7 |
| 20260504215702 | 69 | 353 | 3.0 | 6.0 | 0.00 | 0.00 | 0.00 | 41 | 1012.7 |
| 20260504215200 | 69 | 252 | 3.0 | 5.0 | 0.00 | 0.00 | 0.00 | 42 | 1012.5 |
| 20260504214655 | 70 | 351 | 9.0 | 10.0 | 0.00 | 0.00 | 0.00 | 40 | 1012.5 |
| 20260504214152 | 70 | 120 | 7.0 | 7.0 | 0.00 | 0.00 | 0.00 | 41 | 1012.8 |
| 20260504213649 | 69 | 232 | 6.0 | 6.0 | 0.00 | 0.00 | 0.00 | 43 | 1012.4 |
| 20260504213145 | 68 | 327 | 3.0 | 10.0 | 0.00 | 0.00 | 0.00 | 41 | 1012.7 |
| 20260504212642 | 69 | 208 | 10.0 | 12.0 | 0.00 | 0.00 | 0.00 | 42 | 1012.7 |
| 20260504212138 | 70 | 248 | 5.0 | 6.0 | 0.00 | 0.00 | 0.00 | 39 | 1012.7 |
| 20260504211636 | 70 | 55 | 1.0 | 9.0 | 0.00 | 0.00 | 0.00 | 41 | 1012.6 |
| 20260504211132 | 70 | 236 | 8.0 | 9.0 | 0.00 | 0.00 | 0.00 | 39 | 1012.4 |
| 20260504210630 | 70 | 299 | 2.0 | 4.0 | 0.00 | 0.00 | 0.00 | 39 | 1012.4 |
| 20260504210126 | 70 | 239 | 5.0 | 8.0 | 0.00 | 0.00 | 0.00 | 38 | 1012.4 |
| 20260504205624 | 70 | 19 | 2.0 | 10.0 | 0.00 | 0.00 | 0.00 | 39 | 1012.7 |
| 20260504205121 | 70 | 159 | 5.0 | 10.0 | 0.00 | 0.00 | 0.00 | 39 | 1012.6 |
| 20260504204620 | 70 | 87 | 3.0 | 9.0 | 0.00 | 0.00 | 0.00 | 37 | 1012.7 |
| 20260504204118 | 70 | 195 | 9.0 | 11.0 | 0.00 | 0.00 | 0.00 | 39 | 1012.4 |
| 20260504203616 | 71 | 25 | 4.0 | 7.0 | 0.00 | 0.00 | 0.00 | 37 | 1012.2 |
| 20260504203114 | 71 | 286 | 2.0 | 7.0 | 0.00 | 0.00 | 0.00 | 40 | 1012.6 |
| 20260504202609 | 71 | 62 | 4.0 | 7.0 | 0.00 | 0.00 | 0.00 | 38 | 1012.5 |
| 20260504202106 | 71 | 355 | 5.0 | 9.0 | 0.00 | 0.00 | 0.00 | 40 | 1012.4 |
| 20260504201603 | 71 | 194 | 1.0 | 5.0 | 0.00 | 0.00 | 0.00 | 38 | 1012.2 |
| 20260504201101 | 70 | 133 | 2.0 | 12.0 | 0.00 | 0.00 | 0.00 | 37 | 1012.4 |
| 20260504200556 | 71 | 170 | 3.0 | 7.0 | 0.00 | 0.00 | 0.00 | 39 | 1012.4 |
| 20260504200054 | 71 | 183 | 2.0 | 9.0 | 0.00 | 0.00 | 0.00 | 38 | 1012.3 |
| 20260504195550 | 70 | 206 | 3.0 | 9.0 | 0.00 | 0.00 | 0.00 | 40 | 1012.5 |
| 20260504195046 | 72 | 213 | 8.0 | 14.0 | 0.00 | 0.00 | 0.00 | 38 | 1012.5 |
| 20260504194543 | 69 | 300 | 5.0 | 6.0 | 0.00 | 0.00 | 0.00 | 38 | 1012.3 |
| 20260504194038 | 72 | 301 | 7.0 | 17.0 | 0.00 | 0.00 | 0.00 | 37 | 1012.5 |
| 20260504193535 | 72 | 214 | 5.0 | 8.0 | 0.00 | 0.00 | 0.00 | 39 | 1012.4 |
| 20260504193034 | 69 | 196 | 2.0 | 6.0 | 0.00 | 0.00 | 0.00 | 38 | 1012.5 |
| 20260504192532 | 71 | 193 | 9.0 | 11.0 | 0.00 | 0.00 | 0.00 | 38 | 1012.8 |
| 20260504192030 | 72 | 248 | 3.0 | 10.0 | 0.00 | 0.00 | 0.00 | 38 | 1012.7 |
| 20260504191527 | 71 | 105 | 2.0 | 7.0 | 0.00 | 0.00 | 0.00 | 39 | 1012.6 |
| 20260504191023 | 71 | 200 | 5.0 | 12.0 | 0.00 | 0.00 | 0.00 | 37 | 1013.1 |
| 20260504190520 | 71 | 27 | 6.0 | 16.0 | 0.00 | 0.00 | 0.00 | 39 | 1013.0 |
| 20260504190015 | 71 | 88 | 9.0 | 11.0 | 0.00 | 0.00 | 0.00 | 41 | 1012.8 |
| 20260504185513 | 70 | 274 | 3.0 | 11.0 | 0.00 | 0.00 | 0.00 | 40 | 1013.0 |
| 20260504185009 | 69 | 253 | 4.0 | 9.0 | 0.00 | 0.00 | 0.00 | 40 | 1013.1 |
| 20260504184504 | 71 | 226 | 11.0 | 13.0 | 0.00 | 0.00 | 0.00 | 41 | 1013.3 |
| 20260504184000 | 69 | 151 | 3.0 | 7.0 | 0.00 | 0.00 | 0.00 | 42 | 1013.3 |
| 20260504183457 | 69 | 164 | 4.0 | 10.0 | 0.00 | 0.00 | 0.00 | 41 | 1013.2 |
| 20260504182955 | 69 | 206 | 1.0 | 6.0 | 0.00 | 0.00 | 0.00 | 48 | 1013.0 |
| 20260504182452 | 69 | 250 | 5.0 | 8.0 | 0.00 | 0.00 | 0.00 | 43 | 1013.0 |
| 20260504181949 | 69 | 229 | 5.0 | 11.0 | 0.00 | 0.00 | 0.00 | 43 | 1013.3 |
| 20260504181446 | 69 | 294 | 4.0 | 6.0 | 0.00 | 0.00 | 0.00 | 43 | 1013.3 |
| 20260504180944 | 69 | 253 | 10.0 | 16.0 | 0.00 | 0.00 | 0.00 | 42 | 1013.4 |
| 20260504180443 | 69 | 262 | 3.0 | 11.0 | 0.00 | 0.00 | 0.00 | 43 | 1013.7 |
| 20260504175941 | 68 | 198 | 9.0 | 14.0 | 0.00 | 0.00 | 0.00 | 44 | 1013.7 |
| 20260504175438 | 68 | 209 | 9.0 | 10.0 | 0.00 | 0.00 | 0.00 | 44 | 1013.5 |
| 20260504174936 | 67 | 199 | 5.0 | 8.0 | 0.00 | 0.00 | 0.00 | 48 | 1013.7 |
| 20260504174433 | 67 | 251 | 13.0 | 17.0 | 0.00 | 0.00 | 0.00 | 45 | 1013.7 |
| 20260504173930 | 66 | 314 | 4.0 | 12.0 | 0.00 | 0.00 | 0.00 | 48 | 1014.1 |
| 20260504173426 | 66 | 113 | 5.0 | 12.0 | 0.00 | 0.00 | 0.00 | 46 | 1014.3 |
| 20260504172924 | 66 | 186 | 7.0 | 12.0 | 0.00 | 0.00 | 0.00 | 46 | 1014.3 |
| 20260504172420 | 66 | 263 | 7.0 | 12.0 | 0.00 | 0.00 | 0.00 | 46 | 1014.5 |
| 20260504171916 | 66 | 46 | 6.0 | 14.0 | 0.00 | 0.00 | 0.00 | 46 | 1014.4 |
| 20260504171414 | 67 | 221 | 8.0 | 10.0 | 0.00 | 0.00 | 0.00 | 47 | 1014.3 |
| 20260504170911 | 66 | 209 | 4.0 | 16.0 | 0.00 | 0.00 | 0.00 | 46 | 1014.4 |
| 20260504170407 | 66 | 201 | 8.0 | 11.0 | 0.00 | 0.00 | 0.00 | 47 | 1014.7 |
| 20260504160326 | 66 | 151 | 1.0 | 13.0 | 0.00 | 0.00 | 0.00 | 41 | 1014.9 |